Location: Ocean City
(38.3360°N, 75.0850°W)
Time: 20:28:32
(UTC-04:00)

MOZHAYETS 4 - Pass Details

Date: 20 May 2019
Orbit: 661 x 681 km, 98.0° (Epoch: 15 June)

Event Time Altitude Azimuth Distance (km) Brightness Sun altitude
Exits shadow 01:51:27 12° 90° (E) 2,013 10.3 -30.3°
Maximum altitude 01:53:21 14° 64° (ENE) 1,837 10.4 -30.2°
Drops below altitude 10° 01:55:47 10° 32° (NNE) 2,114 11.1 -30.1°
Sets 01:58:58 0° 9° (N) 3,029 12.3 -29.9°
